Location: Unspecified
(0.0000°N, 0.0000°E)
Time: 15:13:19
(UTC+02:00)

Atlas Centaur 2 - Visible Passes

Search period start: 24 May 2015 00:00
Search period end: 03 June 2015 00:00
Orbit: 459 x 1321 km, 30.4° (Epoch: 23 May)

Date Brightness Start Highest point End Pass type
(mag) Time Alt. Az. Time Alt. Az. Time Alt. Az.
24 May 3.1 21:40:40 10° WNW 21:49:11 69° SSW 21:51:28 48° SSE visible
24 May 5.3 23:33:36 10° WSW 23:34:12 12° WSW 23:34:12 12° WSW visible
25 May 3.4 21:38:43 10° WNW 21:47:03 54° SSW 21:49:45 39° SSE visible
26 May 3.6 07:00:01 10° SSE 07:00:58 11° SSE 07:02:03 10° SE visible
26 May 3.7 21:36:53 10° W 21:44:55 43° SSW 21:48:02 31° SSE visible
27 May 3.2 06:56:43 10° SSW 06:59:10 17° SSE 07:01:37 10° ESE visible
27 May 4.1 21:35:13 10° W 21:42:51 34° SSW 21:46:18 25° S visible
28 May 2.6 06:55:04 15° SSW 06:57:20 27° SSE 07:00:24 10° E visible
28 May 4.4 21:33:44 10° W 21:40:49 27° SSW 21:44:33 20° S visible
29 May 1.8 06:53:23 21° SSW 06:55:29 44° SSE 06:58:53 10° ENE visible
29 May 4.6 21:32:29 10° WSW 21:38:50 22° SSW 21:42:46 16° S visible
30 May 1.0 06:51:42 28° SW 06:53:36 76° SSE 06:57:09 10° ENE visible
30 May 4.8 21:31:28 10° WSW 21:36:57 18° SSW 21:40:58 12° S visible
31 May 1.2 06:50:01 31° WSW 06:51:42 63° NNW 06:55:14 10° NE visible
31 May 5.0 21:30:49 10° SW 21:35:07 14° SSW 21:38:59 10° S visible
01 Jun 1.9 06:48:16 27° W 06:49:46 38° NNW 06:53:09 10° NE visible
01 Jun 5.1 21:30:51 10° SW 21:33:21 11° SSW 21:35:28 10° S visible
02 Jun 2.6 06:46:30 21° WNW 06:47:49 25° NNW 06:50:53 10° NNE visible
